Brno, Czech Republic

5:51 PM CEST on August 19, 2017 (GMT +0200)
Turany

Weather History for LKTB - November, 2012

Change the Weather History Date:

Wednesday, November 28, 2012

  Actual Average Record
Temperature  
Mean Temperature 46 °F -  
Max Temperature 55 °F 36 °F - ()
Min Temperature 37 °F 27 °F - ()
Degree Days  
Heating Degree Days 19    
Moisture  
Dew Point 42 °F    
Average Humidity 83    
Maximum Humidity 100    
Minimum Humidity 62    
Precipitation  
Precipitation 0.00 in 0.04 in - ()
Sea Level Pressure  
Sea Level Pressure 29.54 in    
Wind  
Wind Speed 6 mph ()    
Max Wind Speed 16 mph    
Max Gust Speed -    
Visibility 4.1 miles    
Events Fog , Rain    
T = Trace of Precipitation, MM = Missing Value Source: Averaged Metar Reports

Daily Weather History Graph

Daily Weather History Graph

Search for Another Location

Airport or City:

Trip Planner

Search our weather history database for the weather conditions in past years. The results will help you decide how hot, cold, wet, or windy it might be!

Date:

Astronomy

Nov. 28, 2012 Rise Set
Actual Time 7:22 AM CET 3:59 PM CET
Civil Twilight 6:46 AM CET 4:35 PM CET
Nautical Twilight 6:06 AM CET 5:15 PM CET
Astronomical Twilight 5:28 AM CET 5:53 PM CET
Moon 4:00 PM CET (11/28) 7:04 AM CET (11/28)
Length of Visible Light 9h 49m
Length of Day
8h 36m
Full, 100% of the Moon is Illuminated
Nov 28
Full
Nov 28
Full
Dec 6
Last Quarter
Dec 13
New
Dec 20
First Quarter

Hourly Weather History & Observations

Time (CET) Temp. Windchill Dew Point Humidity Pressure Visibility Wind Dir Wind Speed Gust Speed Precip Events Conditions
12:00 AM 44.6 °F 43.1 °F 42.8 °F 93% 29.68 in 2.5 mi NNE 3.5 mph - N/A   Mostly Cloudy
12:30 AM 42.8 °F 41.1 °F 41.0 °F 93% 29.68 in 1.9 mi ENE 3.5 mph - N/A   Mostly Cloudy
12:44 AM 42.8 °F 40.1 °F 39.2 °F 87% 29.68 in 0.8 mi East 4.6 mph - N/A   Mostly Cloudy
12:50 AM 42.8 °F 41.1 °F 41.0 °F 93% 29.68 in 0.3 mi ENE 3.5 mph - N/A Fog Fog
12:54 AM 42.8 °F - 41.0 °F 93% 29.68 in 0.2 mi ENE 2.3 mph - N/A Fog Fog
1:00 AM 42.8 °F - 41.0 °F 93% 29.68 in 0.2 mi Variable 2.3 mph - N/A Fog Fog
1:30 AM 42.8 °F 41.1 °F 41.0 °F 93% 29.65 in 0.1 mi ENE 3.5 mph - N/A Fog Fog
2:00 AM 41.0 °F 39.0 °F 39.2 °F 93% 29.65 in 0.1 mi East 3.5 mph - N/A Fog Fog
2:30 AM 39.2 °F 35.9 °F 37.4 °F 93% 29.65 in 0.2 mi ENE 4.6 mph - N/A Fog Fog
2:53 AM 37.4 °F 34.9 °F 37.4 °F 100% 29.65 in 0.5 mi North 3.5 mph - N/A Fog Fog
3:00 AM 37.4 °F 34.9 °F 37.4 °F 100% 29.65 in 0.7 mi North 3.5 mph - N/A   Partly Cloudy
3:16 AM 39.2 °F 35.9 °F 39.2 °F 100% 29.62 in 1.9 mi ENE 4.6 mph - N/A Fog Partly Cloudy
3:30 AM 41.0 °F 39.0 °F 39.2 °F 93% 29.62 in 1.9 mi ENE 3.5 mph - N/A Fog Partly Cloudy
4:00 AM 39.2 °F 35.9 °F 37.4 °F 93% 29.62 in 2.5 mi ENE 4.6 mph - N/A   Mist
4:30 AM 41.0 °F 37.1 °F 41.0 °F 100% 29.62 in 3.1 mi NE 5.8 mph - N/A   Mist
5:00 AM 41.0 °F 36.4 °F 39.2 °F 93% 29.62 in 3.1 mi ENE 6.9 mph - N/A   Mist
5:30 AM 41.0 °F 35.2 °F 41.0 °F 100% 29.59 in 3.7 mi ENE 9.2 mph - N/A   Unknown
6:00 AM 42.8 °F 37.5 °F 39.2 °F 87% 29.59 in 5.0 mi ENE 9.2 mph - N/A   Unknown
6:30 AM 44.6 °F 39.7 °F 41.0 °F 87% 29.59 in 5.0 mi ENE 9.2 mph - N/A   Unknown
7:00 AM 45 °F - 41 °F 81% 29.61 in 6 mi ENE 8.9 mph - -   Partly Cloudy
7:00 AM 44.6 °F 39.7 °F 41.0 °F 87% 29.59 in - ENE 9.2 mph - N/A   Clear
7:30 AM 44.6 °F 40.2 °F 41.0 °F 87% 29.59 in - ENE 8.1 mph - N/A   Clear
8:00 AM 44.6 °F 40.2 °F 41.0 °F 87% 29.56 in - ENE 8.1 mph - N/A   Clear
8:30 AM 44.6 °F 41.4 °F 41.0 °F 87% 29.59 in 6.2 mi ENE 5.8 mph - N/A   Partly Cloudy
9:00 AM 46.4 °F 42.9 °F 42.8 °F 87% 29.56 in 6.2 mi ENE 6.9 mph - N/A   Mostly Cloudy
9:30 AM 48.2 °F - 42.8 °F 82% 29.56 in 6.2 mi East 6.9 mph - N/A   Scattered Clouds
10:00 AM 48.2 °F - 44.6 °F 87% 29.56 in 6.2 mi ENE 4.6 mph - N/A   Scattered Clouds
10:30 AM 50.0 °F - 44.6 °F 82% 29.56 in - ESE 6.9 mph - N/A   Clear
11:00 AM 51.8 °F - 46.4 °F 82% 29.56 in - ESE 5.8 mph - N/A   Clear
11:30 AM 51.8 °F - 46.4 °F 82% 29.56 in 6.2 mi East 5.8 mph - N/A   Partly Cloudy
12:00 PM 53.6 °F - 46.4 °F 77% 29.53 in 6.2 mi ESE 9.2 mph - N/A   Scattered Clouds
12:30 PM 51.8 °F - 46.4 °F 82% 29.53 in 6.2 mi ESE 9.2 mph - N/A   Partly Cloudy
1:00 PM 56 °F - 47 °F 62% 29.54 in 22 mi SE 15.7 mph - -   Mostly Cloudy
1:00 PM 55.4 °F - 46.4 °F 72% 29.53 in 6.2 mi SE 10.4 mph - N/A   Mostly Cloudy
1:30 PM 55.4 °F - 46.4 °F 72% 29.50 in 6.2 mi ESE 12.7 mph - N/A   Mostly Cloudy
2:00 PM 53.6 °F - 46.4 °F 77% 29.50 in 6.2 mi ESE 13.8 mph - N/A   Scattered Clouds
2:30 PM 53.6 °F - 46.4 °F 77% 29.50 in 6.2 mi ESE 11.5 mph - N/A   Scattered Clouds
3:00 PM 53.6 °F - 46.4 °F 77% 29.50 in 6.2 mi ESE 11.5 mph - N/A   Partly Cloudy
3:30 PM 51.8 °F - 44.6 °F 76% 29.47 in 6.2 mi ESE 10.4 mph - N/A   Partly Cloudy
4:00 PM 50.0 °F - 44.6 °F 82% 29.47 in 6.2 mi ESE 9.2 mph - N/A   Partly Cloudy
4:30 PM 50.0 °F - 44.6 °F 82% 29.47 in - ESE 9.2 mph - N/A   Clear
5:00 PM 50.0 °F - 42.8 °F 76% 29.47 in - ESE 8.1 mph - N/A   Clear
5:30 PM 50.0 °F - 42.8 °F 76% 29.47 in - SE 9.2 mph - N/A   Clear
6:00 PM 50.0 °F - 42.8 °F 76% 29.47 in - ESE 10.4 mph - N/A   Clear
6:30 PM 50.0 °F - 42.8 °F 76% 29.47 in - SE 11.5 mph - N/A   Clear
7:00 PM 50 °F - 42 °F 66% 29.47 in 6 mi SE 13.4 mph - -   Mostly Cloudy
7:00 PM 50.0 °F - 42.8 °F 76% 29.44 in - SE 11.5 mph - N/A   Clear
7:30 PM 50.0 °F - 42.8 °F 76% 29.44 in - SE 9.2 mph - N/A   Clear
8:00 PM 50.0 °F - 42.8 °F 76% 29.44 in - ESE 9.2 mph - N/A   Clear
8:30 PM 50.0 °F - 41.0 °F 71% 29.44 in - ESE 9.2 mph - N/A   Clear
9:00 PM 50.0 °F - 41.0 °F 71% 29.44 in - ESE 8.1 mph - N/A   Clear
9:18 PM 50.0 °F - 41.0 °F 71% 29.42 in 6.2 mi East 8.1 mph - N/A Rain Light Rain
9:30 PM 50.0 °F - 42.8 °F 76% 29.42 in 6.2 mi East 8.1 mph - N/A Rain Light Rain
10:00 PM 50.0 °F - 42.8 °F 76% 29.42 in - ENE 5.8 mph - N/A   Clear
10:11 PM 50.0 °F - 42.8 °F 76% 29.42 in 6.2 mi East 9.2 mph - N/A Rain Light Rain
10:30 PM 50.0 °F - 42.8 °F 76% 29.39 in 6.2 mi ESE 13.8 mph - N/A Rain Light Rain
11:00 PM 50.0 °F - 42.8 °F 76% 29.39 in 6.2 mi ESE 13.8 mph - N/A Rain Light Rain
11:30 PM 50.0 °F - 42.8 °F 76% 29.39 in 6.2 mi East 9.2 mph - N/A   Mostly Cloudy